Theta_e
342 343 344 345 345 347 348 348 348 348 351 351 347 348 352 345 352 352 354 353 358 356 357 354 353 353 352 347 344 344 356 354 350 352 351 356 362 364 367 365 369 370 372 372 370 367 364 367 363 368 362 360 363 363 358 358 365 366 369 369 360 363 360 358 353 356 355 351 360 357 352 359 353 357 361 356 356 357 351 349 361 347 351 355 357
342 342 343 344 344 345 347 347 349 345 349 350 347 347 349 343 350 352 354 354 358 358 359 356 357 353 350 348 345 344 351 353 353 355 350 357 367 367 367 366 368 371 372 372 372 369 368 365 369 371 364 363 362 364 361 363 366 363 362 363 366 357 357 349 349 353 352 351 346 347 356 354 359 355 347 348 355 356 350 362 355 347 345 347 351
341 340 342 343 345 344 346 346 346 347 348 349 349 348 351 344 353 354 354 355 358 359 359 357 357 356 351 350 347 346 351 351 350 352 355 358 362 366 367 369 369 368 369 370 369 368 370 370 369 373 367 366 364 361 362 364 367 363 363 360 362 363 358 355 361 358 351 350 350 355 345 342 354 361 351 350 347 348 357 348 348 345 348 351 358
338 339 340 342 344 345 346 346 347 347 349 350 347 349 348 347 356 355 354 357 358 360 360 358 358 359 358 359 353 350 350 354 359 357 356 359 358 362 368 371 367 365 365 365 367 368 370 368 369 364 370 371 370 367 366 364 364 364 363 362 360 357 353 352 352 355 355 353 341 352 343 343 339 344 348 351 348 347 345 346 345 346 351 352 361
339 339 341 341 343 344 346 347 347 347 347 349 348 346 347 348 355 356 356 358 358 361 359 358 358 358 359 362 358 356 354 354 351 349 353 357 356 359 362 368 369 366 365 366 366 370 372 372 371 371 373 371 368 365 369 364 364 362 366 366 361 357 351 353 359 348 352 365 356 349 342 340 338 339 337 352 345 347 344 343 350 350 350 355 358
341 341 341 342 343 345 347 348 347 347 348 350 351 349 348 350 355 357 357 359 357 360 360 358 358 353 354 354 349 352 346 348 346 346 344 348 349 355 361 362 363 365 368 367 366 368 371 371 372 368 369 372 369 371 371 366 366 364 362 363 358 363 359 357 349 363 349 365 360 356 353 347 343 348 344 341 354 346 348 344 347 345 345 349 355
342 343 341 341 343 344 345 346 347 347 349 351 352 351 352 351 356 358 356 359 358 360 359 358 357 355 352 351 348 353 347 348 355 350 348 351 354 356 362 362 367 363 362 366 366 369 371 372 372 371 368 370 370 370 369 363 360 361 364 364 362 371 365 360 355 352 358 362 349 345 349 348 347 356 344 350 345 360 351 342 341 343 344 347 348
341 340 340 341 344 345 345 347 348 348 349 351 352 353 353 354 356 357 357 358 359 360 358 357 356 355 353 351 349 353 347 351 353 359 358 354 360 354 357 360 365 367 364 369 369 369 371 371 373 371 372 366 368 368 367 365 370 368 367 371 373 367 367 363 357 356 357 353 354 357 356 349 349 342 354 346 355 346 351 345 343 343 343 344 346
343 341 341 342 343 343 345 347 349 349 349 350 351 354 355 356 357 357 357 358 360 361 358 357 357 357 354 352 352 353 354 355 355 358 360 358 354 362 358 358 365 366 369 366 369 368 370 372 372 372 370 370 370 366 362 360 364 365 372 369 368 370 369 365 363 362 357 354 360 357 353 355 348 342 349 350 356 343 341 342 344 347 347 348 348
343 344 342 342 343 344 346 348 349 349 350 353 352 353 353 356 356 356 355 356 359 360 359 357 358 359 355 353 354 351 355 356 354 354 362 362 359 359 365 363 360 363 364 369 370 369 369 370 369 368 368 362 366 365 365 368 365 369 369 366 369 368 377 368 364 367 359 361 359 360 363 358 353 351 346 346 345 353 341 339 347 344 342 353 357
343 344 342 345 348 346 346 346 350 350 351 351 351 353 353 353 357 354 356 355 357 360 359 356 357 358 355 354 354 352 353 355 352 354 357 360 358 356 360 367 361 361 360 364 367 364 367 369 364 366 366 368 370 370 371 365 360 363 362 369 369 370 371 368 365 368 371 370 360 363 363 353 348 355 359 350 349 349 347 341 340 337 339 345 355
342 342 342 344 346 346 346 346 349 351 350 350 350 351 352 352 356 355 357 354 355 359 358 355 356 357 356 355 353 354 353 350 351 353 350 353 353 357 359 365 363 364 366 361 359 359 366 368 368 367 369 369 369 370 369 367 362 362 367 369 369 371 372 368 366 364 359 365 357 354 354 352 352 349 349 346 353 351 349 344 343 347 345 347 354
341 343 345 345 345 345 347 349 351 351 349 349 350 350 351 353 356 355 356 355 354 358 356 355 355 355 355 354 353 354 353 352 352 354 352 352 351 354 360 360 363 362 362 359 358 360 366 368 367 369 372 369 373 372 372 375 376 371 372 362 367 369 371 369 368 364 359 363 357 357 353 352 356 354 352 352 349 355 351 347 339 344 345 347 353
344 345 346 347 347 348 354 352 355 353 350 350 351 351 352 352 355 356 357 356 355 357 357 355 354 355 355 354 352 353 352 351 352 350 354 354 355 353 351 353 359 357 357 359 359 358 360 366 368 368 373 374 374 375 374 371 372 370 368 368 362 369 372 370 370 364 368 364 362 362 354 354 352 358 351 347 344 345 345 343 356 355 346 343 354
344 344 344 344 345 350 350 353 353 353 350 348 349 352 353 354 356 357 357 357 356 357 358 355 353 354 355 354 352 352 350 350 350 349 351 355 353 353 355 352 354 356 357 361 363 363 362 365 367 367 369 372 373 373 369 373 373 371 370 369 374 373 369 368 367 361 359 359 364 367 365 358 359 361 351 358 357 355 354 351 350 345 342 343 345
337 339 342 347 349 352 351 350 350 350 352 351 350 352 353 355 358 359 358 358 356 358 358 355 353 353 355 354 353 352 352 350 351 352 353 356 358 356 357 358 355 359 359 363 361 364 363 364 366 365 369 368 371 372 371 369 372 370 372 370 370 362 369 368 368 364 359 363 361 368 376 356 362 357 359 359 360 359 361 362 362 362 350 344 348
339 342 344 346 348 351 350 350 351 351 350 349 351 353 355 356 358 360 360 359 357 358 359 356 356 353 354 354 354 353 351 349 348 349 346 351 357 359 359 356 356 361 359 359 360 362 365 363 362 361 367 368 369 371 371 371 372 369 367 370 368 363 370 369 369 365 365 358 360 360 367 367 368 367 365 361 372 366 363 367 373 360 361 351 345
339 342 345 345 348 349 347 346 347 347 349 352 354 356 356 357 358 359 360 360 358 358 357 357 356 354 355 355 355 354 351 347 346 348 346 348 352 358 357 357 353 352 356 354 357 360 363 366 364 365 365 365 365 366 370 370 370 368 367 370 368 371 370 370 370 365 364 366 361 363 360 363 365 362 362 358 370 378 370 367 366 368 366 352 351
340 341 342 347 349 348 351 352 353 354 355 354 354 355 354 356 357 359 360 361 360 357 358 358 357 353 355 354 353 354 352 350 348 350 349 347 346 353 354 355 355 354 356 362 360 359 360 363 365 365 367 366 367 366 369 369 369 367 366 366 367 370 370 369 370 368 363 364 367 363 368 371 371 369 370 362 372 365 366 366 369 367 369 363 356
341 342 346 347 347 349 348 348 349 350 352 353 354 354 353 354 356 360 362 363 362 360 361 359 356 356 356 358 355 355 356 353 352 354 350 349 351 351 353 352 356 356 355 358 362 358 359 360 361 361 361 362 363 362 364 368 368 366 364 361 362 367 366 365 364 364 361 365 365 363 366 369 372 371 370 366 366 369 371 368 366 365 366 366 363
340 342 342 342 344 343 348 352 351 352 353 354 353 352 352 353 355 359 360 361 361 360 360 360 360 359 359 359 357 357 355 356 353 355 355 354 354 355 355 355 357 357 357 355 359 360 361 361 359 360 359 360 362 361 363 365 366 366 366 367 367 369 364 365 366 366 363 363 365 363 365 366 370 366 367 364 362 364 365 364 366 368 364 365 363
340 340 341 340 340 343 347 350 350 349 351 355 353 353 355 354 355 358 360 361 361 360 361 361 361 358 357 359 358 357 358 357 354 353 355 356 356 356 358 359 356 358 359 356 357 359 362 362 361 361 361 361 363 365 362 363 364 365 364 362 362 365 367 363 365 365 366 364 367 367 364 365 369 365 363 359 359 356 356 357 360 359 361 362 364
340 341 340 341 343 344 347 349 349 348 353 351 351 350 350 351 357 357 360 360 361 361 361 363 361 360 360 360 359 359 358 356 353 352 351 352 356 357 358 359 356 355 360 359 358 357 361 364 362 362 362 361 363 363 363 362 363 364 363 362 361 361 362 362 363 364 363 364 364 365 363 364 363 361 363 361 359 360 360 362 364 367 362 359 363
346 342 340 346 348 349 349 348 347 348 351 351 351 349 349 353 357 358 359 361 362 361 362 362 361 359 358 361 361 361 357 355 355 353 351 352 355 355 358 358 358 356 357 360 361 359 362 364 363 363 363 360 363 361 361 361 362 363 363 363 363 363 361 361 362 363 363 363 363 363 361 360 361 362 363 364 364 363 364 365 362 359 363 363 368
332 333 342 345 346 345 347 347 348 347 349 351 352 351 351 353 354 354 358 362 362 362 362 362 361 359 357 359 358 358 357 356 355 354 354 353 355 356 357 356 357 356 357 359 361 362 363 364 362 363 364 360 362 361 360 359 360 362 362 362 362 364 363 362 362 363 365 364 363 361 362 362 363 361 362 361 361 363 364 362 360 362 363 363 362
331 336 343 344 343 344 345 347 349 347 346 351 352 351 349 350 351 355 358 361 362 363 362 361 361 359 357 359 358 358 358 357 356 355 355 355 355 357 358 358 358 357 358 358 360 361 362 363 363 363 365 363 362 362 362 360 358 359 361 361 363 363 362 362 362 363 364 364 363 363 362 363 362 360 359 360 363 362 363 362 362 363 366 368 368
330 335 340 343 345 344 347 351 349 347 346 347 351 353 352 352 352 353 356 360 362 362 362 360 361 358 358 358 359 356 359 359 358 357 356 356 356 357 357 357 358 359 357 356 358 361 362 364 365 365 364 364 362 362 363 363 361 360 360 361 360 362 362 361 361 361 361 362 363 362 363 364 362 362 361 360 362 363 362 362 365 367 366 365 363
335 336 340 345 345 346 350 349 348 347 348 350 353 354 353 354 354 356 357 360 362 361 361 362 361 359 359 358 358 359 361 361 359 358 358 357 357 356 358 360 361 359 357 355 356 359 363 363 365 365 365 366 365 362 364 365 364 362 361 361 360 360 360 361 360 362 361 360 361 361 360 361 363 364 363 363 363 362 365 363 365 365 366 366 364
329 347 356 344 346 347 349 349 349 348 348 349 350 351 355 357 357 358 358 359 362 362 360 360 361 360 360 359 361 361 361 362 360 360 359 357 358 358 359 360 362 360 359 358 356 358 360 360 362 364 365 365 364 363 363 364 364 363 362 359 360 360 361 360 360 359 361 362 360 359 359 359 362 369 364 363 362 365 363 363 365 367 368 367 367
338 342 344 349 353 352 353 351 350 348 350 349 352 355 356 356 357 357 359 360 362 361 361 360 360 360 361 361 362 362 361 362 362 361 360 359 359 360 359 360 362 361 361 361 358 359 360 360 360 364 366 364 363 363 358 347 352 363 362 357 359 361 360 360 361 360 359 360 359 357 356 367 366 370 362 355 353 356 361 363 368 371 369 368 367
336 338 340 347 350 349 349 357 356 353 352 351 355 356 356 355 355 356 359 359 360 361 360 360 360 361 361 362 363 362 362 361 362 362 361 361 360 360 360 361 362 362 361 363 361 358 358 360 360 361 363 363 362 361 347 338 340 348 361 361 359 360 362 363 361 362 359 358 358 359 359 362 367 370 369 359 353 351 351 353 356 361 369 370 363
334 337 339 341 344 348 352 347 346 350 354 355 360 356 354 353 355 356 357 358 358 360 358 360 361 362 364 363 362 363 362 361 363 363 362 362 361 361 361 361 361 360 361 362 361 359 359 360 361 362 363 363 363 351 336 335 337 338 349 364 361 360 361 362 363 360 360 359 357 356 357 356 358 360 360 368 358 350 346 347 346 347 348 347 351
334 335 337 339 340 343 347 350 350 351 351 350 352 351 352 355 356 357 358 357 357 357 359 361 361 363 364 364 364 363 362 362 363 363 364 362 362 362 361 360 360 361 362 361 360 360 359 359 360 361 359 362 362 345 332 333 335 336 337 354 363 361 358 360 361 363 362 360 359 358 356 355 351 367 365 363 367 361 344 339 343 344 345 343 338
332 333 334 337 338 341 344 347 352 356 353 351 351 351 354 355 355 359 359 358 358 358 359 361 362 364 365 365 364 364 362 363 363 364 364 363 362 361 361 361 359 360 362 361 361 360 360 360 359 361 361 361 362 343 328 330 332 333 335 342 365 365 363 360 361 363 362 362 363 361 359 358 358 359 366 365 366 370 365 357 354 355 356 356 344
329 331 332 334 336 338 341 344 348 354 355 355 348 346 352 355 354 353 357 362 361 361 361 361 363 365 367 366 365 365 364 364 364 365 365 363 362 362 362 360 357 357 360 362 360 359 360 360 359 360 363 359 360 335 326 326 328 329 333 339 363 365 365 363 363 363 364 364 364 364 363 361 362 362 362 366 366 367 369 369 364 360 358 359 361
327 329 331 332 334 336 338 341 347 350 352 352 353 348 347 349 352 352 355 358 362 364 364 361 364 365 367 367 366 365 366 365 365 365 364 364 363 362 362 361 358 356 358 364 364 361 361 361 360 358 357 358 358 328 325 325 326 327 331 349 361 363 363 364 366 368 366 367 366 365 364 363 363 365 364 352 359 366 366 366 366 368 367 367 366
327 328 329 332 334 335 337 341 342 345 350 352 352 350 344 344 350 350 352 355 359 364 362 362 363 365 366 367 366 366 366 366 366 365 364 364 363 363 363 363 359 357 357 358 361 360 363 361 361 361 359 359 360 331 323 323 324 325 331 355 360 362 362 361 362 366 369 370 370 368 368 366 366 367 358 341 341 361 365 365 364 365 367 365 365
325 328 329 331 332 334 336 338 341 345 349 353 355 349 347 348 349 348 349 353 351 359 363 363 362 364 366 367 367 367 367 367 367 365 365 364 365 364 363 364 361 358 356 357 361 363 363 363 361 361 360 361 361 340 318 321 322 322 336 357 360 361 361 361 361 363 365 366 367 370 373 369 367 368 350 337 334 352 364 364 362 360 359 359 361
323 324 326 327 329 332 335 338 340 342 348 355 356 357 345 348 351 349 349 348 351 358 362 362 362 363 366 368 368 367 367 368 367 366 365 365 364 364 363 364 361 359 359 361 363 362 362 363 361 361 357 360 360 346 315 321 318 319 335 359 361 361 360 359 360 360 362 363 364 365 366 361 363 360 342 333 331 350 364 364 364 361 359 359 361
322 323 324 326 330 331 331 333 336 340 345 351 356 356 355 349 350 351 348 348 352 356 361 364 363 364 367 369 368 369 369 368 369 368 368 369 368 365 363 361 361 360 359 359 361 361 362 362 361 362 363 362 359 361 329 318 316 317 324 359 363 360 358 359 360 360 360 362 363 364 359 336 333 334 336 326 324 332 361 366 365 362 360 360 363
320 321 324 324 326 327 329 332 335 340 343 349 356 358 355 356 353 351 349 350 356 359 362 365 365 363 365 369 369 369 369 370 370 369 368 368 367 366 365 363 361 361 360 358 358 359 360 362 361 362 361 362 362 362 340 314 315 316 319 335 362 361 360 360 360 359 360 361 362 363 363 344 328 326 326 318 316 319 339 366 367 364 364 368 356
320 321 321 321 322 325 327 330 334 337 342 346 353 357 358 358 355 353 354 355 358 361 363 366 366 364 364 367 368 370 370 370 371 371 369 368 369 369 368 365 362 362 361 359 358 358 359 361 362 362 362 362 361 352 350 316 315 314 317 323 356 363 361 361 360 360 360 360 361 365 366 350 328 325 323 319 315 317 322 354 365 343 341 339 362
317 318 319 320 320 322 325 328 331 335 340 345 350 356 355 361 357 356 356 359 362 363 365 367 367 365 366 368 369 370 369 370 370 371 369 367 368 368 368 367 365 364 363 360 359 359 358 359 361 362 362 364 365 361 338 331 314 313 314 318 330 347 339 361 360 359 360 361 363 363 366 355 326 322 320 319 318 318 325 341 333 332 331 333 347
317 317 318 319 319 321 323 326 329 334 340 347 354 359 358 362 361 361 359 362 365 365 367 368 366 366 367 368 369 369 371 370 370 370 369 368 368 368 369 368 367 365 362 360 360 360 359 357 357 358 359 360 364 369 338 327 324 312 314 316 320 327 333 356 361 360 364 363 364 365 361 337 317 314 315 318 320 322 334 324 321 325 330 338 349
314 315 317 318 318 320 322 325 329 334 339 347 359 363 364 365 365 365 363 365 365 365 366 367 366 366 367 368 369 370 370 369 370 370 368 367 368 368 367 369 368 366 364 361 361 360 358 357 356 356 357 358 363 370 357 333 321 315 314 314 317 321 322 329 357 363 363 358 322 311 317 318 314 314 315 318 320 320 319 324 321 323 341 346 347
314 315 316 318 319 320 321 324 327 332 336 346 362 365 364 367 370 367 366 370 367 367 365 367 367 367 368 369 369 368 369 369 369 369 369 369 368 367 366 368 366 364 364 362 361 359 359 358 356 356 357 359 364 366 365 347 328 322 318 315 317 319 323 324 343 356 331 318 314 312 310 312 316 320 331 337 340 336 320 325 323 329 344 347 350
314 315 318 316 317 318 320 323 325 330 334 344 361 369 372 372 370 368 367 372 369 368 364 367 367 367 369 369 368 366 367 368 369 368 370 370 368 367 367 366 365 363 363 362 361 359 359 357 357 357 358 360 361 363 366 356 342 335 332 329 323 326 323 325 336 345 333 341 330 339 344 335 332 328 340 342 343 332 328 333 336 342 348 351 354
315 316 316 315 316 317 320 322 324 328 334 344 359 370 376 374 371 368 368 372 368 366 365 367 367 367 367 368 367 365 364 365 367 366 365 364 366 366 364 365 363 362 361 360 360 359 359 358 358 358 359 360 360 361 363 366 350 343 341 338 333 335 337 337 341 351 355 354 353 336 335 351 349 350 355 355 351 345 343 342 345 346 349 352 355
316 316 316 314 316 318 319 322 324 328 336 350 361 367 375 372 371 369 368 371 367 363 365 366 365 364 363 363 365 365 365 365 366 365 364 371 367 365 363 364 365 366 364 362 361 361 361 362 362 360 359 359 360 359 363 346 356 334 344 346 341 341 343 343 338 333 354 358 359 353 353 354 354 352 352 355 355 354 352 352 353 354 354 355 357
317 317 316 315 316 317 320 322 324 329 343 357 360 358 356 361 366 368 368 370 369 366 365 365 364 362 362 362 363 363 363 362 362 361 348 330 310 300 315 366 363 333 324 328 340 363 365 364 362 364 369 362 363 364 343 329 322 321 322 325 327 325 326 338 332 325 341 354 355 355 353 352 352 353 352 352 353 355 354 354 355 346 354 356 356
317 316 314 314 316 319 320 321 324 333 346 352 354 356 359 360 357 351 351 358 364 365 364 364 363 362 360 362 362 363 363 364 364 361 351 345 343 335 302 296 309 314 306 301 304 312 326 337 362 369 337 311 322 329 321 316 313 316 317 317 316 315 316 319 320 333 345 351 353 352 352 353 352 354 353 354 353 354 353 355 356 354 357 356 351
Wind_Speed
16 18 19 19 20 16 14 15 14 15 13 14 14 13 10 15 10 12 11 11 9 9 8 8 8 6 6 8 8 6 4 4 5 5 5 8 9 8 7 7 6 6 4 4 5 5 4 3 3 2 4 2 2 1 1 2 2 0 2 3 2 2 1 2 3 2 3 3 2 1 3 2 4 1 0 2 2 2 4 4 1 6 4 2 3
17 17 18 20 17 19 17 14 16 17 14 16 15 15 11 16 12 12 11 10 10 10 8 8 7 6 7 7 8 7 5 4 4 4 6 9 7 8 5 7 7 6 5 4 5 6 5 3 4 4 4 4 3 3 3 2 3 1 1 1 1 1 2 1 4 2 1 2 2 2 1 3 0 2 3 1 2 2 3 1 2 3 6 6 3
15 17 20 19 20 20 16 15 15 17 17 18 16 15 12 14 10 11 11 11 10 11 9 7 8 7 7 6 8 7 5 5 5 4 4 9 8 6 5 7 6 6 6 5 5 4 5 3 3 3 5 5 5 3 3 4 3 2 3 2 1 1 2 2 1 2 1 2 3 1 1 2 1 1 1 1 2 2 1 2 3 3 2 4 2
19 20 20 20 19 18 16 16 15 16 15 16 17 16 12 12 10 12 11 11 10 10 9 8 8 7 7 5 7 7 6 6 4 3 4 8 8 7 4 5 6 6 6 5 4 4 4 6 4 4 4 3 3 3 3 3 3 3 2 2 3 1 0 0 4 2 3 3 2 1 2 2 3 1 2 2 2 2 4 3 4 2 3 5 1
15 19 19 19 19 19 16 15 16 16 17 17 17 17 13 15 12 13 11 11 10 11 10 8 8 7 6 5 5 7 6 4 4 4 3 7 7 6 6 5 5 5 6 5 4 4 3 3 3 3 4 4 4 4 3 3 3 3 3 2 2 2 0 2 1 3 1 2 0 1 1 1 2 3 3 2 2 2 3 5 5 2 2 4 2
17 17 17 18 18 18 16 17 19 17 17 16 17 18 15 15 13 13 11 11 12 12 11 9 8 8 7 7 7 7 8 7 7 6 6 5 8 8 8 8 7 5 4 4 4 4 4 3 4 4 4 4 3 3 2 3 4 3 4 3 1 2 2 1 1 1 4 2 2 1 1 2 2 1 2 0 3 4 2 4 6 6 4 7 4
16 14 16 19 19 20 19 19 19 19 18 17 17 17 16 15 13 14 12 10 12 12 12 9 8 8 8 7 6 5 8 6 5 5 6 5 4 7 7 6 6 6 5 5 4 4 4 4 3 3 3 4 3 3 3 4 3 3 2 3 4 1 0 1 3 1 4 1 3 4 4 3 2 1 1 1 1 2 2 5 4 7 5 10 7
14 18 19 18 18 19 21 20 19 19 19 19 18 17 16 15 14 14 12 11 11 12 12 10 9 9 8 7 7 5 7 7 7 4 5 6 3 8 6 6 6 4 4 5 4 4 4 4 4 3 3 4 5 4 3 2 2 2 3 3 3 3 2 2 1 4 2 2 2 2 1 4 3 3 1 2 1 0 2 4 6 6 4 5 8
18 16 19 19 18 20 19 19 20 20 19 19 18 16 14 15 15 14 14 12 11 14 12 11 10 10 9 8 7 6 6 6 5 3 4 6 6 4 7 7 7 6 4 5 5 4 5 4 4 3 3 3 3 4 4 5 7 5 2 4 3 2 3 3 3 2 5 2 2 2 4 1 3 5 4 2 1 1 3 2 3 2 3 3 4
19 18 19 19 18 18 18 20 20 19 18 18 18 17 16 14 17 16 15 13 12 15 13 13 12 10 10 9 9 8 6 6 6 6 4 4 5 5 4 7 7 6 5 4 5 5 4 4 4 5 4 5 3 3 3 2 3 3 3 3 3 2 2 2 2 3 3 4 2 3 2 2 4 3 2 3 3 1 3 4 1 2 2 1 2
18 19 18 19 19 20 22 22 20 19 16 19 19 18 18 17 17 18 16 13 14 15 14 15 13 11 11 10 10 10 8 7 8 7 4 4 4 5 4 4 6 6 6 5 4 6 5 4 5 6 5 4 3 3 2 2 3 3 4 3 2 2 3 2 3 2 1 1 1 4 2 3 3 1 1 2 1 1 2 3 2 5 2 1 2
20 20 20 19 17 18 19 20 21 19 18 18 19 18 18 16 17 18 16 16 14 15 16 15 13 13 12 12 11 10 9 7 8 8 8 6 5 5 5 5 4 5 5 6 6 8 6 5 5 4 5 3 4 3 3 2 3 4 3 3 3 2 2 1 2 3 2 3 3 3 4 5 5 4 3 5 3 0 3 2 5 3 2 2 2
21 19 18 18 16 17 18 15 15 17 15 18 19 20 18 17 19 19 18 17 16 16 17 16 14 14 13 13 11 9 9 8 7 7 8 7 7 6 6 6 6 5 6 6 7 7 5 6 5 5 4 4 3 3 3 2 1 2 3 5 3 3 3 2 3 3 4 1 2 3 3 3 2 4 2 1 4 4 4 2 4 3 3 3 2
20 20 19 18 18 15 10 14 13 14 19 16 18 18 16 18 19 21 19 18 16 17 18 17 17 15 14 13 11 10 9 9 8 8 8 8 7 7 7 7 7 7 7 7 7 8 6 7 6 5 3 3 3 2 2 3 1 1 2 1 3 3 2 2 2 3 3 3 3 3 4 3 2 2 3 3 3 4 5 5 2 2 2 4 3
19 20 20 19 19 16 13 11 12 11 16 19 19 17 16 16 18 20 19 18 18 18 17 18 16 15 14 13 12 10 10 9 8 8 7 8 8 8 7 7 7 7 7 6 6 7 7 7 8 6 5 5 4 4 4 3 2 2 2 2 1 1 3 3 3 4 4 4 3 2 1 3 2 3 3 2 2 3 3 4 5 3 2 4 4
21 21 21 20 19 16 14 14 15 16 17 17 18 16 17 17 18 21 21 20 20 19 17 18 17 15 15 14 14 13 10 10 8 7 7 7 8 8 8 7 7 7 7 5 8 6 7 7 8 8 6 6 5 5 4 4 3 4 3 2 2 3 2 3 3 4 4 3 3 2 0 3 3 2 3 2 2 3 4 2 2 1 1 2 3
20 20 19 19 18 18 16 16 16 17 19 20 19 18 18 18 19 21 20 20 20 19 19 18 16 15 16 15 14 13 13 13 12 12 12 9 8 8 8 9 7 6 8 7 7 7 7 8 7 9 8 6 6 6 5 4 4 4 4 3 3 4 3 3 2 3 3 5 4 4 3 2 2 3 3 4 2 2 3 3 1 1 1 1 1
24 21 20 21 20 20 20 20 21 21 21 18 16 17 17 18 21 22 22 22 20 20 19 17 17 17 16 16 15 15 14 15 14 13 12 10 9 8 8 8 9 7 7 8 8 9 7 8 7 7 8 7 7 7 6 6 5 4 4 4 4 3 3 2 3 3 3 3 4 3 3 4 3 3 3 4 1 2 2 1 2 1 2 3 1
22 23 19 19 19 20 20 20 20 18 17 14 15 18 19 20 21 23 25 24 23 21 19 16 17 15 14 17 18 16 14 14 13 12 12 11 13 11 11 9 9 9 7 5 8 9 8 8 8 8 7 8 8 7 7 6 5 5 5 4 4 4 3 3 2 3 3 4 3 3 2 2 1 2 2 2 1 4 3 2 2 2 1 2 3
23 21 21 21 21 22 23 23 23 21 18 15 14 14 21 23 21 23 23 21 20 21 19 18 20 17 16 16 16 15 14 14 13 12 13 13 12 12 12 12 10 9 9 8 7 9 9 10 9 9 10 9 9 8 8 7 6 6 6 6 5 6 5 4 4 4 5 4 4 3 3 2 2 2 2 2 3 1 2 4 3 4 3 2 2
22 21 21 23 21 24 23 22 22 20 17 13 12 11 15 18 22 24 24 24 24 22 21 18 17 17 17 18 18 16 17 15 15 14 13 13 12 12 12 11 9 10 9 10 8 9 10 10 10 10 11 9 8 9 7 6 7 6 6 5 4 5 7 6 5 5 5 4 5 4 3 3 3 3 3 3 3 3 4 4 4 3 4 3 4
22 22 22 20 20 21 21 20 16 19 16 14 12 10 11 18 20 22 23 23 24 22 20 18 17 17 19 19 19 18 17 15 17 15 14 14 13 12 11 11 12 10 10 11 10 9 10 11 11 10 9 9 9 9 9 7 7 7 7 7 7 5 5 6 5 5 6 5 3 3 4 3 3 4 4 4 4 4 4 5 6 6 5 5 5
23 25 22 20 20 19 21 20 20 19 15 17 14 15 17 17 18 20 23 24 23 23 21 17 17 17 18 18 18 17 17 18 20 17 19 18 15 14 12 12 13 12 11 10 11 11 10 10 11 9 9 9 9 10 9 8 8 8 8 8 7 8 6 6 7 6 6 5 5 4 4 4 4 5 5 5 5 4 4 4 2 3 5 5 5
19 20 21 19 19 19 17 17 15 15 15 17 16 16 18 19 18 21 25 25 24 22 20 19 19 20 21 19 18 17 20 20 20 17 19 19 17 16 13 14 14 13 12 11 11 12 10 10 11 10 10 9 9 10 10 9 9 9 9 9 8 7 8 7 7 7 7 6 7 6 6 5 5 5 4 3 4 4 4 3 4 5 3 3 2
14 17 22 23 22 19 16 17 16 17 18 17 19 19 19 20 20 22 23 23 22 20 20 21 21 22 21 19 21 20 20 21 20 18 20 20 18 16 14 16 15 14 13 12 10 11 10 10 11 11 10 11 10 11 11 11 10 9 10 10 9 7 7 7 8 7 7 7 7 7 7 6 5 5 4 5 4 5 4 4 4 4 4 4 4
14 11 22 24 22 19 18 18 17 19 20 19 20 20 22 19 21 20 20 22 21 20 21 20 20 21 20 22 21 20 21 22 21 19 20 19 18 17 16 15 15 15 12 13 12 11 11 11 11 11 10 11 10 10 11 11 12 11 10 10 9 9 8 7 7 8 7 7 7 7 7 6 6 6 6 5 5 6 5 6 5 4 4 3 3
15 15 19 19 17 20 18 17 19 21 19 18 21 21 20 18 20 20 21 21 20 20 18 20 21 21 19 21 21 20 19 20 19 18 17 17 18 18 18 17 15 15 15 14 14 12 11 11 11 11 11 10 11 11 10 11 11 10 10 10 10 9 9 8 8 8 9 8 9 8 7 7 7 7 7 6 6 6 5 5 5 4 4 4 5
9 11 10 16 19 20 18 20 21 21 21 20 20 19 19 18 20 20 22 21 18 19 18 18 19 18 18 21 20 19 18 17 16 15 14 16 16 16 15 14 13 15 16 14 15 15 11 12 12 12 11 10 11 11 10 11 11 10 10 10 10 9 10 9 8 9 9 9 9 9 10 8 8 7 7 5 5 5 4 5 5 5 4 4 4
9 9 6 8 18 16 20 22 21 22 21 22 21 21 18 18 19 19 19 21 19 17 18 19 18 17 17 18 16 16 15 15 15 15 14 15 15 14 13 12 13 13 13 14 14 15 14 13 13 12 12 11 12 12 11 11 11 11 10 10 10 10 10 9 9 9 9 9 9 8 9 10 8 12 13 11 9 8 5 5 5 4 4 4 4
19 17 15 14 8 12 16 19 19 21 21 22 18 17 18 19 19 19 18 18 16 17 16 18 19 18 16 16 15 14 15 15 15 15 14 14 14 13 13 12 13 14 12 12 12 12 16 15 14 13 13 12 11 11 12 17 15 11 11 10 9 9 10 8 8 8 9 10 10 10 10 13 14 15 16 16 16 15 12 8 4 3 5 4 4
18 16 17 15 16 16 11 6 9 15 19 17 14 16 17 21 19 20 18 17 18 16 17 17 17 16 15 15 14 14 14 15 15 15 14 14 13 13 12 12 12 14 13 11 11 12 15 15 15 14 15 14 13 12 17 16 17 16 12 10 9 8 9 9 9 7 8 9 8 9 8 10 9 8 10 15 15 15 15 13 11 8 4 3 3
17 16 16 15 16 15 11 10 15 12 10 5 5 13 17 18 18 19 19 19 18 18 18 16 16 14 14 16 15 15 15 15 15 15 15 15 13 12 13 13 12 14 13 12 13 12 11 13 14 15 15 14 13 14 18 18 17 17 14 11 10 8 8 9 9 9 8 8 8 8 8 8 7 7 6 8 12 15 15 14 13 12 12 11 8
15 15 15 16 15 13 11 8 1 5 7 8 13 12 12 14 14 15 16 18 17 19 17 15 15 15 14 15 14 15 16 15 16 15 15 14 14 13 13 14 14 12 13 13 12 12 11 11 13 14 14 14 13 15 17 20 19 19 18 13 9 8 8 8 9 10 9 8 8 8 8 7 8 12 11 8 8 9 12 15 14 14 13 13 13
14 15 15 14 14 12 10 12 12 5 8 9 14 16 9 12 10 11 15 15 14 16 15 15 15 15 15 15 15 15 16 16 15 14 14 15 15 14 14 13 13 11 12 13 14 13 11 11 11 12 13 12 13 13 18 20 20 21 20 16 10 9 9 9 8 9 10 9 8 8 8 8 7 6 4 7 7 7 7 8 8 6 7 11 13
13 13 14 13 13 15 14 13 12 9 9 11 11 12 7 7 10 11 12 10 11 12 13 14 14 14 14 14 15 15 15 14 15 15 14 15 16 14 14 13 14 13 11 12 13 13 12 12 12 10 11 13 14 15 18 20 21 21 21 17 13 10 8 7 7 8 8 9 9 9 8 8 7 6 6 6 6 6 6 6 7 7 9 9 9
12 13 12 12 13 13 15 15 14 14 10 10 11 10 10 9 10 11 11 11 10 10 13 14 13 14 15 15 15 15 14 14 15 15 15 16 15 15 15 13 12 13 12 10 10 11 12 12 12 12 11 12 12 17 20 20 22 21 22 11 11 11 10 8 6 6 7 7 8 8 8 9 8 7 9 12 9 6 5 6 7 7 8 9 9
12 12 12 12 12 12 14 15 15 14 15 12 11 12 13 14 15 12 9 13 13 10 13 15 15 15 15 16 16 16 15 15 15 15 16 16 15 15 13 11 12 13 13 14 13 14 11 12 12 11 13 10 10 13 19 22 22 23 15 11 14 11 10 10 8 6 5 5 6 7 7 8 8 8 10 12 12 9 6 7 6 7 7 7 6
13 13 13 13 13 14 14 13 16 16 15 14 15 12 11 12 12 14 15 14 16 14 14 16 17 17 16 16 15 16 15 15 15 16 16 15 14 12 14 13 14 14 15 15 14 13 12 13 13 13 13 10 9 11 19 20 23 22 19 14 13 11 11 10 8 8 6 6 7 11 9 8 8 7 11 13 13 10 7 8 8 7 7 7 6
14 15 15 16 15 15 15 15 15 16 16 17 16 14 16 15 14 17 16 14 16 16 16 17 18 18 15 15 15 15 15 15 15 15 15 14 15 14 13 12 14 14 13 12 12 13 13 12 15 15 16 13 12 10 18 19 20 20 18 12 11 10 10 9 9 9 9 8 8 10 14 12 10 10 11 12 14 12 9 9 8 7 8 8 7
15 14 16 16 15 15 15 15 16 16 17 18 18 16 17 18 17 15 18 20 21 19 16 16 16 15 14 14 15 15 15 15 15 15 13 13 12 13 14 14 14 13 12 13 13 13 14 13 12 13 12 14 15 8 15 20 20 20 21 13 9 10 11 11 10 9 9 9 10 9 11 16 17 14 11 11 13 15 10 8 7 8 8 8 6
16 16 17 15 15 14 16 17 16 16 17 18 17 17 14 12 17 18 20 20 18 15 13 13 14 16 16 16 15 15 16 15 15 14 15 14 13 14 14 14 15 14 12 12 13 13 14 12 13 12 13 15 14 11 14 21 21 22 23 18 11 12 11 10 10 9 9 9 9 10 10 13 18 18 15 13 13 15 12 8 8 8 7 3 4
16 17 17 17 17 18 19 19 18 18 18 17 17 17 12 10 15 18 18 16 14 13 12 13 15 16 17 17 17 14 15 14 14 13 14 14 13 14 13 15 15 13 13 13 11 11 12 12 11 12 11 12 14 18 11 18 22 23 23 24 13 13 13 11 11 9 10 10 10 8 9 11 18 19 19 17 16 14 15 9 9 9 4 1 2
19 20 20 19 18 18 19 21 20 20 17 17 19 19 13 10 16 18 17 12 12 13 13 13 14 15 14 15 15 16 14 13 14 14 15 14 13 14 13 13 13 12 12 12 11 10 10 10 10 9 9 10 10 13 17 16 20 22 23 23 22 15 17 12 11 11 10 10 9 9 8 13 18 20 20 19 17 17 11 10 13 7 2 1 1
18 18 18 20 18 18 20 21 20 19 18 19 18 17 12 10 14 14 13 10 11 13 13 13 14 15 14 15 15 15 14 13 14 14 14 14 14 13 12 11 12 11 11 11 11 11 9 9 11 10 10 9 9 8 14 21 18 23 22 24 23 19 17 13 12 10 8 9 9 8 9 12 16 18 19 19 19 17 12 14 10 9 4 2 3
18 19 19 19 18 20 20 22 21 21 20 18 18 15 12 11 11 11 12 11 12 13 14 14 15 15 14 14 14 14 14 14 14 15 14 14 14 14 11 11 12 11 10 11 11 11 11 10 9 9 9 9 8 8 8 15 23 22 24 24 24 22 16 17 12 9 9 1 5 7 5 7 13 16 18 17 12 11 11 8 10 10 8 4 5
18 18 20 20 20 20 20 22 23 22 20 18 17 16 14 11 9 11 12 10 12 13 15 15 15 14 14 14 15 16 15 15 15 13 13 12 13 13 12 11 12 11 10 11 11 10 11 11 10 10 9 9 8 8 8 9 12 18 19 23 23 23 19 16 15 6 6 8 7 9 9 9 7 5 5 5 5 7 11 10 9 9 6 6 6
18 18 19 19 20 20 21 23 24 23 19 19 18 17 10 9 11 11 12 10 12 14 14 14 15 14 13 13 15 13 13 14 14 12 12 11 12 11 11 11 11 12 11 11 11 11 11 11 11 10 9 8 9 8 9 8 8 7 7 10 12 13 16 12 7 3 6 5 6 4 4 5 6 9 5 6 5 8 7 4 5 6 6 6 7
13 15 17 19 19 20 21 22 21 20 18 18 16 15 6 7 10 11 12 11 12 14 14 15 16 14 13 14 14 16 16 13 13 14 14 15 12 13 13 12 13 13 14 12 12 12 12 12 12 11 9 9 10 9 10 9 9 8 8 8 9 8 8 8 8 7 7 6 5 4 5 4 5 4 4 4 4 5 6 6 6 6 6 6 8
14 16 17 16 18 20 22 22 22 20 19 16 14 13 9 10 9 9 10 11 12 14 15 16 16 15 16 13 14 13 14 13 13 14 13 9 11 15 14 12 13 12 12 12 13 11 11 11 10 10 10 10 10 10 10 9 14 16 14 10 8 8 8 7 13 15 9 7 5 5 6 6 5 6 5 6 6 6 6 7 8 7 7 8 8
13 13 15 17 18 18 19 21 20 19 18 15 11 8 11 9 3 5 8 9 10 12 14 14 14 14 14 14 13 14 14 14 14 14 8 6 9 12 5 8 12 5 5 4 8 10 10 10 9 10 9 11 11 9 7 13 19 20 19 21 20 18 17 14 16 19 13 9 9 7 7 7 7 7 8 7 8 8 8 9 8 8 8 7 6
13 16 18 19 20 20 20 21 19 18 14 11 8 8 9 7 4 5 9 9 5 8 11 12 12 13 14 14 14 13 14 12 13 11 9 8 6 7 13 14 10 7 8 10 8 6 4 4 9 7 4 7 3 9 13 15 18 20 20 19 18 18 18 19 17 13 8 10 8 9 9 8 8 8 8 8 8 9 8 7 7 7 6 4 4
Wind_Direction
186 188 188 181 178 182 179 172 170 168 157 154 174 168 174 160 159 155 157 158 152 159 166 170 158 174 169 165 161 189 208 151 169 171 155 135 145 143 156 148 145 155 175 168 136 148 165 166 156 257 124 151 139 229 193 199 250 165 109 217 283 337 221 195 55 20 69 61 333 195 120 248 144 219 142 160 174 140 130 201 212 147 148 182 162
188 184 192 184 176 181 177 172 174 170 162 160 178 171 173 166 164 156 160 156 161 166 165 172 160 175 166 168 165 175 175 161 176 173 168 131 136 137 160 144 153 156 167 184 166 169 163 157 182 146 140 154 192 196 213 209 234 212 108 344 178 135 282 243 101 106 239 196 187 153 290 107 20 200 184 178 137 217 141 141 31 296 156 162 156
187 189 189 184 181 182 175 175 176 171 170 167 176 171 171 170 162 160 163 158 165 167 170 170 167 172 172 170 173 160 173 169 174 177 149 130 134 144 163 146 160 161 173 181 176 187 151 134 160 122 159 169 175 171 205 217 218 210 205 159 8 209 268 57 67 284 151 107 47 345 150 158 119 355 308 259 184 168 157 172 173 199 85 96 113
204 189 189 183 183 182 173 177 176 170 172 169 176 174 176 169 165 162 166 161 170 167 176 164 171 167 176 184 171 158 167 167 160 171 160 141 150 155 160 144 163 172 181 176 184 178 163 159 151 178 161 190 116 129 189 174 211 229 181 183 141 320 285 258 164 210 323 118 176 234 172 164 156 330 196 204 217 211 170 207 164 194 144 112 142
212 183 190 182 184 182 176 175 178 177 175 175 177 175 180 173 168 165 169 162 172 164 176 162 166 175 178 181 187 143 151 153 161 157 194 140 156 157 162 161 175 185 176 182 180 167 169 148 148 168 152 187 159 182 196 202 208 201 133 150 183 126 19 317 231 155 149 31 27 349 304 80 5 102 119 357 269 192 238 207 128 314 163 137 143
220 192 189 188 187 180 177 176 182 180 178 178 180 177 179 173 169 166 171 160 173 166 175 166 167 170 178 170 190 148 152 162 173 166 181 164 170 163 162 177 178 195 172 184 180 157 175 171 168 171 188 194 181 189 158 181 234 176 180 168 94 145 135 334 298 287 108 64 348 198 325 86 183 334 355 285 312 319 275 195 142 201 172 149 194
204 194 191 194 190 184 180 180 184 182 179 179 181 179 179 171 169 170 170 166 172 166 175 169 165 171 179 176 180 157 153 163 167 176 164 167 182 147 151 172 173 190 182 185 173 170 174 179 192 200 193 171 186 170 187 209 245 157 177 169 148 166 153 85 306 317 79 190 206 225 162 255 98 128 155 173 340 298 303 315 175 192 193 161 181
202 198 197 197 193 187 183 182 185 186 180 180 183 179 180 169 169 173 171 172 173 166 175 172 169 168 174 178 173 177 160 155 170 185 153 151 197 152 158 167 165 194 186 167 184 177 171 187 186 202 216 200 177 190 216 186 109 320 123 59 108 141 198 128 246 308 194 237 210 247 193 99 28 320 30 64 180 307 313 260 257 160 221 183 183
197 202 196 193 190 190 188 186 188 186 180 181 183 178 177 168 169 173 175 175 173 168 174 173 170 170 174 177 169 177 161 155 164 183 163 153 178 162 157 164 159 178 202 166 180 192 173 187 190 194 209 241 173 201 212 194 144 206 137 159 146 185 188 181 170 247 289 159 65 12 3 324 176 213 140 216 127 18 288 262 283 60 341 99 35
197 199 198 195 194 191 193 188 189 188 183 181 181 180 178 171 170 176 177 179 172 171 174 174 172 170 177 180 172 173 165 159 165 178 178 161 156 173 160 152 157 172 189 194 168 197 185 185 192 202 207 221 208 226 206 197 159 159 167 177 196 174 143 238 192 213 258 345 133 125 61 340 349 2 292 195 114 108 266 299 345 143 174 315 209
193 194 197 195 192 191 190 193 189 189 185 183 187 185 183 177 172 179 180 179 176 172 176 176 173 177 179 182 177 173 175 166 164 171 182 157 173 159 171 156 154 165 182 190 184 189 199 192 201 199 209 207 202 268 255 231 176 177 186 178 178 198 161 216 268 191 203 251 293 122 181 203 189 246 250 11 327 219 265 323 323 17 16 303 224
190 192 194 196 192 192 191 192 188 187 187 185 185 187 184 178 176 179 180 181 180 175 178 178 178 180 182 184 182 176 178 175 171 168 173 177 176 170 169 162 162 161 183 178 196 197 190 188 213 207 189 213 187 219 251 233 238 165 176 152 173 192 197 189 275 292 275 168 247 168 192 232 178 194 212 176 166 260 37 334 309 282 259 269 125
188 190 192 190 190 193 193 196 185 180 192 189 187 190 185 179 178 180 183 183 182 177 180 181 182 182 183 185 184 180 179 181 177 170 169 177 176 180 173 176 168 183 182 196 188 199 177 183 196 222 188 197 208 186 227 269 317 327 147 172 173 179 188 208 195 238 233 178 239 291 231 235 197 172 284 309 155 166 165 208 271 324 344 296 255
186 186 186 187 189 187 179 185 174 179 192 184 185 192 190 186 179 183 184 183 181 180 180 182 185 184 185 184 184 181 182 184 181 183 171 175 174 185 190 184 182 188 192 190 192 192 192 177 187 207 211 188 199 203 213 225 211 328 307 218 209 168 188 202 225 247 254 252 213 205 280 289 264 195 181 176 207 180 180 213 217 29 322 320 329
180 181 187 185 185 181 180 174 174 176 186 194 189 192 189 187 180 183 183 184 183 182 182 184 185 186 185 186 185 183 185 185 187 187 182 175 181 188 195 193 189 191 201 186 194 183 189 175 180 194 207 194 190 194 204 211 201 197 285 298 273 85 181 207 214 241 250 241 241 215 239 272 305 345 305 258 336 354 35 45 68 38 345 329 314
181 185 185 183 181 178 181 180 182 187 191 196 194 190 190 186 182 184 185 185 185 184 186 186 186 186 184 186 185 185 184 186 187 188 189 185 183 189 194 200 194 184 192 195 191 190 183 184 172 191 199 198 188 194 199 203 189 196 197 223 237 234 212 197 222 256 256 258 269 280 69 296 313 295 317 334 27 27 47 52 78 125 139 311 347
183 179 182 183 181 179 183 184 185 186 192 197 194 191 189 183 180 183 187 188 187 186 185 187 185 184 186 186 185 184 184 187 188 189 194 193 190 191 194 201 207 190 181 195 192 189 186 187 185 190 194 196 193 190 199 208 191 190 199 204 218 239 214 215 219 224 264 262 231 217 191 220 275 311 335 332 31 66 36 16 51 158 133 100 296
182 183 180 180 181 180 188 194 192 193 196 196 195 191 189 184 183 183 185 187 188 187 187 185 184 185 186 186 186 186 186 190 191 191 194 193 194 195 199 198 202 210 200 197 189 187 188 188 188 191 187 195 197 195 197 203 200 197 207 197 205 219 242 222 209 242 238 244 276 272 193 201 206 227 224 232 257 137 118 190 248 227 162 186 191
174 179 179 176 178 181 185 185 186 179 185 184 196 197 192 189 188 187 188 188 187 186 188 187 185 186 186 187 187 186 188 190 191 189 192 195 198 196 203 202 198 203 210 206 180 184 188 186 192 189 192 189 191 198 190 197 197 204 211 199 203 204 227 238 223 214 246 253 253 261 308 266 268 282 304 299 234 161 169 148 271 297 324 196 198
169 174 175 177 180 183 185 190 189 186 182 185 193 199 200 200 191 190 190 189 188 188 187 187 188 186 185 185 187 187 186 189 189 186 190 196 197 198 200 205 200 198 204 207 191 185 184 191 192 196 197 194 192 200 198 190 195 203 211 213 201 192 199 215 230 223 232 227 216 238 248 255 258 269 275 268 286 274 166 176 187 210 236 248 231
174 174 174 178 182 186 187 184 187 182 179 180 180 193 211 212 199 191 191 190 190 191 189 188 188 188 183 183 185 185 189 188 190 190 190 194 197 199 197 203 199 201 197 202 201 189 182 190 198 199 201 192 189 195 196 189 192 199 209 217 231 189 190 198 209 238 245 231 208 205 219 221 225 250 232 245 255 241 206 194 195 201 221 219 212
169 170 175 180 181 183 185 183 174 180 174 156 162 181 217 215 208 198 193 191 191 190 189 186 188 188 188 185 187 185 187 188 192 191 193 192 197 198 198 195 204 199 197 198 201 193 185 187 199 197 204 191 186 187 191 192 189 199 206 213 220 232 192 198 203 215 225 252 255 206 212 222 219 225 242 240 232 250 241 210 191 205 204 217 205
172 173 174 174 177 180 183 183 184 176 158 172 174 186 191 211 218 206 195 192 191 190 189 184 186 186 186 183 185 186 186 189 192 193 196 197 196 198 196 197 201 203 194 199 195 197 188 189 197 197 199 196 184 187 191 194 193 197 202 210 210 209 216 203 205 214 220 221 240 243 228 219 226 231 222 232 251 264 280 297 287 196 205 214 217
171 179 172 165 171 173 174 175 180 186 170 174 185 190 197 198 202 206 198 194 191 190 188 185 186 188 186 181 182 184 187 189 192 192 195 197 197 198 195 198 200 204 197 194 194 193 191 191 195 197 194 197 186 186 192 198 197 196 200 208 215 208 205 213 212 210 217 220 221 221 233 231 221 226 226 230 225 231 251 257 263 268 270 271 271
205 184 163 169 168 171 174 178 182 182 179 181 187 189 192 195 191 205 209 197 193 189 187 186 187 187 185 183 185 185 188 190 192 194 196 197 196 195 194 198 199 203 200 190 193 191 192 193 195 197 193 194 190 187 190 199 202 199 199 205 211 218 214 207 210 215 217 216 219 222 221 223 234 230 221 221 228 242 227 230 246 246 234 231 237
195 168 155 166 172 174 175 177 185 187 188 181 186 193 197 193 198 206 208 198 193 190 189 185 186 186 185 185 185 186 188 191 193 194 196 196 197 194 194 194 198 199 199 189 190 191 192 195 197 197 195 191 193 191 191 199 204 202 199 203 206 211 218 217 210 210 217 222 227 220 221 223 221 224 229 224 222 224 224 229 240 247 243 243 236
182 177 161 173 166 174 175 179 180 186 190 185 187 191 190 192 195 198 205 199 192 190 187 185 186 188 185 187 187 188 188 191 191 193 193 193 196 196 195 195 196 198 198 195 189 191 191 195 195 196 199 192 193 195 195 199 204 205 200 200 208 206 211 215 216 215 220 221 224 226 224 220 226 223 221 221 219 223 229 241 234 232 228 230 246
166 168 159 154 168 170 174 180 184 190 194 192 186 187 193 192 196 194 200 197 191 190 186 183 186 187 186 188 189 187 187 188 190 190 190 192 195 197 194 192 192 197 199 200 191 190 189 194 194 196 199 196 193 196 198 199 203 206 201 199 203 208 208 211 213 214 220 226 221 224 229 222 221 224 222 223 220 229 223 225 223 228 236 240 250
90 38 28 145 172 173 175 176 185 191 194 193 190 194 193 194 197 195 198 196 188 188 186 184 185 188 186 188 186 186 185 185 187 187 191 192 193 194 193 188 186 195 199 201 198 189 192 195 198 196 199 201 197 200 200 199 201 206 209 204 200 205 211 210 209 214 214 220 230 230 223 228 216 210 212 213 221 222 229 227 224 223 223 229 229
31 31 29 26 32 177 179 181 187 193 195 193 190 187 191 193 192 193 195 194 182 187 186 186 187 189 186 184 183 183 183 183 183 186 191 191 191 191 192 191 184 190 196 199 204 188 189 193 196 193 197 202 202 202 201 198 197 202 207 212 204 203 209 214 209 210 215 214 221 231 238 229 223 213 206 208 211 216 218 222 229 212 218 217 222
24 21 18 19 30 31 22 331 216 200 190 189 186 185 189 196 195 195 196 193 184 185 186 187 189 188 183 181 181 183 181 183 184 185 187 191 192 188 190 191 186 186 191 195 203 197 190 193 196 197 197 202 205 205 194 192 196 200 204 210 210 203 202 208 214 211 214 219 219 221 230 245 246 229 209 208 211 215 217 222 225 228 218 206 231
18 18 13 13 15 23 24 359 324 344 347 280 211 187 191 197 195 197 197 197 191 186 188 187 186 183 181 182 183 181 182 184 183 185 185 189 191 189 189 190 190 185 187 191 199 204 196 189 194 199 199 201 206 202 185 187 191 198 204 208 212 212 204 205 210 215 216 216 224 228 227 229 227 228 219 197 209 213 217 222 227 231 235 240 229
16 13 7 3 3 360 358 18 40 292 281 263 283 260 213 203 199 195 194 199 195 191 186 185 183 182 182 183 182 182 183 183 186 184 183 185 189 191 190 190 192 186 183 190 197 201 203 199 191 195 202 202 206 200 182 183 188 193 202 208 213 214 215 209 205 211 216 217 217 223 237 238 237 220 218 209 194 207 214 218 221 225 236 238 242
11 5 358 357 344 345 345 339 333 291 250 248 231 227 222 201 215 200 197 198 197 191 184 181 182 180 181 182 183 185 184 185 184 182 181 184 188 193 192 191 191 188 186 190 195 200 204 207 203 193 196 203 208 191 182 184 187 192 198 201 213 213 214 217 212 207 210 216 215 216 220 231 237 242 223 210 205 197 196 208 211 219 229 239 239
359 355 352 348 337 331 335 332 331 336 314 299 262 231 236 209 195 224 208 202 205 187 180 180 181 178 178 182 185 187 187 184 183 183 183 186 189 190 192 191 193 194 189 189 194 199 203 207 210 204 193 200 212 181 179 184 189 192 197 198 209 215 220 220 218 214 210 209 213 217 220 225 225 227 229 218 208 207 195 190 200 212 224 232 231
350 345 342 340 333 327 321 322 320 315 296 274 282 262 230 207 209 214 222 209 210 189 175 176 179 179 180 184 185 187 187 185 183 184 185 187 189 190 190 188 192 197 196 187 193 203 203 206 208 210 212 203 208 173 180 183 189 194 193 191 205 214 222 230 229 227 216 209 210 212 215 220 224 227 219 218 218 210 207 212 209 214 218 222 224
341 340 333 328 326 324 322 319 312 310 310 296 267 239 234 223 191 212 214 211 210 194 179 176 181 181 181 183 186 187 187 185 184 185 188 188 188 188 190 188 191 194 193 193 195 202 205 207 207 208 215 214 209 177 180 184 188 192 183 191 204 210 218 221 230 235 242 233 220 214 215 218 217 220 216 206 213 204 220 220 222 229 237 250 251
339 333 329 333 333 328 315 307 304 299 291 285 275 257 222 225 202 203 205 200 203 204 187 180 183 183 182 183 185 186 187 185 185 189 189 189 187 186 189 188 191 193 197 195 195 199 204 208 207 208 209 211 213 176 183 186 189 185 181 190 199 205 215 219 225 230 237 242 242 236 230 228 227 224 210 200 201 195 214 220 226 237 245 251 254
338 335 334 335 326 319 308 300 292 287 283 278 265 255 236 222 203 203 201 200 208 200 188 184 185 184 181 180 183 185 187 186 188 190 189 187 189 187 189 187 193 198 199 193 191 197 203 207 209 209 206 205 216 180 185 182 188 182 186 194 194 203 209 214 217 224 224 233 236 235 234 233 231 227 219 201 198 192 211 215 222 230 239 244 245
337 337 338 326 323 319 317 310 301 297 297 295 284 250 237 213 201 203 205 202 201 202 191 187 182 180 177 177 184 185 187 187 185 186 187 186 184 187 190 191 195 197 198 197 192 196 203 207 207 208 201 203 211 185 181 183 181 183 188 191 191 196 206 208 212 215 218 220 226 232 224 224 230 232 218 199 199 200 206 214 214 222 228 232 239
337 339 336 331 328 324 316 310 301 297 295 292 288 270 245 214 196 199 209 206 199 194 187 178 180 182 181 179 183 184 186 187 186 184 187 187 188 190 189 189 194 198 198 200 198 195 202 205 209 207 208 203 209 198 176 183 183 183 191 190 193 199 200 205 208 212 218 219 218 220 229 211 214 222 217 201 195 203 211 214 211 219 223 176 62
336 337 339 336 328 324 317 313 308 302 297 292 290 272 247 220 201 200 207 206 188 183 182 176 177 184 185 182 183 182 184 184 186 184 185 190 190 191 190 188 195 195 196 197 198 195 198 202 208 204 207 206 198 203 165 189 186 187 189 194 194 200 197 200 205 215 217 224 224 215 217 207 202 210 215 208 202 198 208 212 221 219 219 66 270
337 338 338 336 329 323 319 313 308 305 300 294 290 277 248 224 203 199 200 198 174 175 178 174 174 182 184 183 183 180 182 184 186 187 187 190 189 193 192 187 194 195 194 195 196 198 197 197 200 203 203 206 198 197 169 178 191 190 192 197 201 197 196 196 209 216 215 223 221 224 225 202 195 204 209 210 207 207 200 214 222 226 242 27 309
334 334 331 331 326 321 315 311 308 305 301 294 284 276 251 221 205 195 189 180 169 169 171 171 174 181 182 183 183 183 182 185 186 186 190 189 189 192 189 187 190 191 190 193 193 198 202 201 200 200 203 204 203 188 172 175 182 191 196 198 205 208 185 202 205 220 217 219 226 221 223 203 193 200 204 207 210 205 205 216 221 237 242 201 229
334 330 328 328 323 317 313 310 309 307 303 296 288 279 258 218 202 182 177 175 170 169 170 170 176 180 183 183 182 184 184 186 187 187 189 190 187 188 189 185 187 192 192 191 192 193 199 204 205 203 203 205 195 177 155 178 179 188 195 200 205 207 205 197 206 218 232 232 92 94 85 176 191 195 200 205 210 206 208 202 202 206 195 193 195
331 329 330 328 323 318 315 312 310 308 306 299 296 286 256 214 189 175 172 173 169 167 170 172 175 179 184 183 181 186 185 189 189 188 189 190 188 186 188 183 185 191 192 191 191 191 196 202 207 209 206 201 191 186 161 167 185 188 194 199 202 206 209 206 209 197 109 116 124 95 99 105 118 142 145 158 179 184 193 193 188 179 186 199 200
329 327 328 328 326 320 316 314 310 308 307 302 302 296 243 191 178 171 173 169 170 167 171 170 173 179 184 185 182 187 186 188 189 184 184 186 189 188 188 184 185 191 192 192 189 190 194 198 205 207 206 201 196 193 177 165 162 167 187 196 205 214 217 215 228 147 149 132 141 154 131 145 129 161 168 157 151 136 150 172 181 193 197 206 207
325 324 327 324 321 316 312 311 308 305 301 296 296 304 241 180 172 174 173 168 169 170 173 174 174 178 184 186 184 181 181 186 186 184 187 192 191 192 191 186 187 188 192 191 188 192 193 196 201 202 203 202 205 201 196 167 173 168 171 170 181 187 181 191 202 204 192 181 155 117 122 120 126 151 159 148 152 166 176 180 185 189 199 210 220
327 331 329 324 317 312 309 308 304 302 297 289 295 315 296 189 178 181 176 169 171 173 176 176 176 181 188 188 185 180 183 184 182 189 187 187 195 195 192 194 194 193 195 191 193 194 195 198 198 199 198 204 208 208 208 175 174 177 171 168 162 183 187 183 202 201 202 204 182 152 178 178 181 188 190 197 187 181 192 194 195 193 198 208 204
325 324 324 317 310 304 303 307 304 300 300 295 310 319 330 334 318 207 190 181 173 178 180 180 182 186 189 185 186 184 183 189 186 182 126 95 47 52 31 190 187 101 107 179 193 192 192 193 198 200 197 203 208 207 177 166 161 172 176 177 184 185 187 188 195 199 197 203 204 204 193 197 199 202 207 208 209 202 197 201 202 202 202 204 179
330 330 327 321 317 312 311 307 303 305 310 321 321 328 339 343 17 10 359 345 285 197 182 184 184 190 191 185 187 181 183 187 185 162 143 121 110 64 49 47 53 85 96 86 83 92 129 170 194 185 69 52 74 154 168 164 160 167 173 177 180 184 184 192 184 173 197 203 206 213 217 220 215 217 218 219 218 217 214 198 197 182 193 158 142